Weather History for PAPH - October, 2013

Change the Weather History Date:

Monday, October 7, 2013

  Actual Average Record
Temperature  
Mean Temperature 48 °F -  
Max Temperature 55 °F 45 °F 55 °F (2006)
Min Temperature 42 °F 34 °F 23 °F (2014)
Degree Days  
Heating Degree Days 16    
Moisture  
Dew Point 39 °F    
Average Humidity 69    
Maximum Humidity 76    
Minimum Humidity 57    
Precipitation  
Precipitation 0.04 in - - ()
Sea Level Pressure  
Sea Level Pressure 29.57 in    
Wind  
Wind Speed 13 mph (SSE)    
Max Wind Speed 36 mph    
Max Gust Speed 48 mph    
Visibility 10 miles    
Events      
Averages and records for this station are not official NWS values.
T = Trace of Precipitation, MM = Missing Value Source: NWS Daily Summary

Daily Weather History Graph

Daily Weather History Graph

Search for Another Location

Airport or City:

Trip Planner

Search our weather history database for the weather conditions in past years. The results will help you decide how hot, cold, wet, or windy it might be!

Date:

Astronomy

Oct. 07, 2013 Rise Set
Actual Time 8:51 AM AKDT 7:51 PM AKDT
Civil Twilight 8:13 AM AKDT 8:29 PM AKDT
Nautical Twilight 7:29 AM AKDT 9:13 PM AKDT
Astronomical Twilight 6:44 AM AKDT 9:58 PM AKDT
Moon 12:34 PM AKDT (10/7) 9:03 PM AKDT (10/7)
Length of Visible Light 12h 16m
Length of Day
10h 59m
Waxing Crescent, 9% of the Moon is Illuminated
Oct 7
Waxing Crescent
Oct 11
First Quarter
Oct 18
Full
Oct 26
Last Quarter
Nov 3
New

Hourly Weather History & Observations

Time (AKDT) Temp. Windchill Dew Point Humidity Pressure Visibility Wind Dir Wind Speed Gust Speed Precip Events Conditions
12:16 AM 44.6 °F 39.2 °F 35.6 °F 71% 29.83 in 10.0 mi South 10.4 mph - N/A   Overcast
12:36 AM 44.6 °F 40.7 °F 35.6 °F 71% 29.83 in 10.0 mi South 6.9 mph - N/A   Overcast
12:56 AM 44.6 °F 42.2 °F 35.6 °F 71% 29.83 in 10.0 mi SSW 4.6 mph - N/A   Overcast
1:16 AM 44.6 °F 41.4 °F 35.6 °F 71% 29.83 in 10.0 mi South 5.8 mph - N/A   Overcast
1:36 AM 44.6 °F 42.2 °F 35.6 °F 71% 29.83 in 10.0 mi SSW 4.6 mph - N/A   Overcast
1:56 AM 44.6 °F 41.4 °F 37.4 °F 76% 29.83 in 10.0 mi South 5.8 mph - N/A   Overcast
2:16 AM 44.6 °F 40.2 °F 35.6 °F 71% 29.82 in 10.0 mi South 8.1 mph - N/A   Overcast
2:36 AM 44.6 °F 40.2 °F 35.6 °F 71% 29.82 in 10.0 mi South 8.1 mph - N/A   Overcast
2:56 AM 46.4 °F 43.5 °F 35.6 °F 66% 29.82 in 10.0 mi South 5.8 mph - N/A   Overcast
3:16 AM 46.4 °F 43.5 °F 35.6 °F 66% 29.81 in 10.0 mi South 5.8 mph - N/A   Overcast
3:36 AM 46.4 °F 43.5 °F 35.6 °F 66% 29.81 in 10.0 mi SW 5.8 mph - N/A   Overcast
3:56 AM 44.6 °F 41.4 °F 35.6 °F 71% 29.82 in 10.0 mi SW 5.8 mph - N/A   Overcast
4:16 AM 44.6 °F 43.1 °F 35.6 °F 71% 29.81 in 10.0 mi WNW 3.5 mph - N/A   Overcast
4:36 AM 44.6 °F 43.1 °F 35.6 °F 71% 29.80 in 10.0 mi WNW 3.5 mph - N/A   Overcast
4:56 AM 44.6 °F - 35.6 °F 71% 29.80 in 10.0 mi Calm Calm - N/A   Overcast
5:16 AM 44.6 °F - 35.6 °F 71% 29.80 in 10.0 mi Calm Calm - N/A   Overcast
5:36 AM 42.8 °F 39.3 °F 35.6 °F 76% 29.79 in 10.0 mi ESE 5.8 mph - N/A   Overcast
5:56 AM 42.8 °F 38.6 °F 35.6 °F 76% 29.78 in 10.0 mi East 6.9 mph - N/A   Overcast
6:16 AM 42.8 °F 38.6 °F 35.6 °F 76% 29.77 in 10.0 mi East 6.9 mph - N/A   Overcast
6:36 AM 44.6 °F 40.2 °F 35.6 °F 71% 29.77 in 10.0 mi East 8.1 mph - N/A   Mostly Cloudy
6:56 AM 44.6 °F 40.7 °F 35.6 °F 71% 29.76 in 10.0 mi ENE 6.9 mph - N/A   Overcast
7:16 AM 44.6 °F - 35.6 °F 71% 29.78 in 10.0 mi Calm Calm - N/A   Overcast
7:36 AM 44.6 °F 42.2 °F 35.6 °F 71% 29.76 in 10.0 mi SE 4.6 mph - N/A   Overcast
7:56 AM 44.6 °F 41.4 °F 35.6 °F 71% 29.76 in 10.0 mi SE 5.8 mph - N/A   Overcast
8:16 AM 46.4 °F 41.9 °F 35.6 °F 66% 29.74 in 10.0 mi SE 9.2 mph - N/A   Overcast
8:36 AM 46.4 °F 41.5 °F 37.4 °F 71% 29.73 in 10.0 mi SSE 10.4 mph - N/A   Overcast
8:56 AM 46.4 °F 41.9 °F 37.4 °F 71% 29.71 in 10.0 mi SE 9.2 mph - N/A   Overcast
9:16 AM 46.4 °F 40.1 °F 37.4 °F 71% 29.71 in 10.0 mi SSE 15.0 mph - N/A   Overcast
9:36 AM 48.2 °F - 37.4 °F 66% 29.70 in 10.0 mi SE 13.8 mph - N/A   Overcast
9:56 AM 48.2 °F - 37.4 °F 66% 29.69 in 10.0 mi SE 12.7 mph - N/A   Overcast
10:16 AM 48.2 °F - 37.4 °F 66% 29.69 in 10.0 mi SSE 17.3 mph - N/A   Overcast
10:36 AM 48.2 °F - 37.4 °F 66% 29.68 in 10.0 mi SSE 21.9 mph 27.6 mph N/A   Overcast
10:56 AM 48.2 °F - 37.4 °F 66% 29.68 in 10.0 mi SE 17.3 mph 24.2 mph N/A   Mostly Cloudy
11:16 AM 48.2 °F - 39.2 °F 71% 29.68 in 10.0 mi SSE 20.7 mph 26.5 mph N/A   Scattered Clouds
11:36 AM 50.0 °F - 37.4 °F 62% 29.67 in 10.0 mi SE 18.4 mph 24.2 mph N/A   Partly Cloudy
11:56 AM 50.0 °F - 39.2 °F 66% 29.65 in 10.0 mi SE 24.2 mph 29.9 mph N/A   Mostly Cloudy
12:16 PM 50.0 °F - 39.2 °F 66% 29.65 in 10.0 mi SE 21.9 mph 26.5 mph N/A   Overcast
12:36 PM 50.0 °F - 39.2 °F 66% 29.64 in 10.0 mi SSE 23.0 mph 28.8 mph N/A   Overcast
12:56 PM 51.8 °F - 39.2 °F 62% 29.63 in 10.0 mi SSE 25.3 mph 29.9 mph N/A   Overcast
1:16 PM 50.0 °F - 39.2 °F 66% 29.62 in 10.0 mi SSE 23.0 mph 29.9 mph N/A   Overcast
1:36 PM 48.2 °F - 39.2 °F 71% 29.61 in 10.0 mi SSE 24.2 mph - N/A   Overcast
1:56 PM 48.2 °F - 39.2 °F 71% 29.60 in 10.0 mi SE 24.2 mph 31.1 mph N/A   Overcast
2:16 PM 50.0 °F - 41.0 °F 71% 29.59 in 10.0 mi SSE 24.2 mph 31.1 mph N/A   Overcast
2:36 PM 50.0 °F - 42.8 °F 76% 29.58 in 10.0 mi SE 21.9 mph 29.9 mph N/A   Overcast
2:56 PM 50.0 °F - 42.8 °F 76% 29.56 in 10.0 mi SSE 24.2 mph 31.1 mph N/A   Overcast
3:16 PM 50.0 °F - 42.8 °F 76% 29.55 in 10.0 mi SE 26.5 mph 32.2 mph N/A   Overcast
3:36 PM 51.8 °F - 44.6 °F 76% 29.52 in 10.0 mi SE 24.2 mph 31.1 mph N/A   Overcast
3:56 PM 51.8 °F - 42.8 °F 71% 29.51 in 10.0 mi SE 24.2 mph 28.8 mph N/A   Mostly Cloudy
4:16 PM 51.8 °F - 42.8 °F 71% 29.49 in 10.0 mi SE 23.0 mph 29.9 mph N/A   Scattered Clouds
4:36 PM 51.8 °F - 42.8 °F 71% 29.47 in 10.0 mi SSE 26.5 mph 29.9 mph N/A   Clear
4:56 PM 51.8 °F - 42.8 °F 71% 29.46 in 10.0 mi SSE 23.0 mph 31.1 mph N/A   Clear
5:16 PM 51.8 °F - 42.8 °F 71% 29.43 in 10.0 mi SSE 25.3 mph 32.2 mph N/A   Mostly Cloudy
5:36 PM 51.8 °F - 44.6 °F 76% 29.42 in 10.0 mi SSE 26.5 mph 34.5 mph N/A   Overcast
5:56 PM 51.8 °F - 42.8 °F 71% 29.39 in 10.0 mi SE 28.8 mph 35.7 mph 0.01 in   Overcast
6:16 PM 51.8 °F - 42.8 °F 71% 29.38 in 9.0 mi SE 26.5 mph 34.5 mph 0.01 in   Overcast
6:36 PM 51.8 °F - 44.6 °F 76% 29.34 in 10.0 mi SE 25.3 mph 29.9 mph 0.02 in   Overcast
6:56 PM 51.8 °F - 42.8 °F 71% 29.30 in 10.0 mi SE 24.2 mph - 0.03 in   Overcast
7:16 PM - - - N/A% 29.24 in 10.0 mi SE 31.1 mph 41.4 mph N/A   Mostly Cloudy
7:36 PM - - - N/A% 29.22 in 10.0 mi SSE 34.5 mph 48.3 mph N/A   Scattered Clouds
7:56 PM - - - N/A% 29.18 in 10.0 mi SSE 35.7 mph 47.2 mph N/A   Scattered Clouds
8:16 PM - - - N/A% 29.17 in 10.0 mi SE 33.4 mph 43.7 mph N/A   Mostly Cloudy
8:36 PM 53.6 °F - 44.6 °F 72% 29.17 in 10.0 mi SSE 32.2 mph 41.4 mph N/A   Partly Cloudy
8:56 PM 55.4 °F - 42.8 °F 63% 29.20 in 10.0 mi SSE 32.2 mph 43.7 mph N/A   Clear
9:16 PM 55.4 °F - 42.8 °F 63% 29.19 in 10.0 mi SSE 29.9 mph 42.6 mph N/A   Clear
9:36 PM 53.6 °F - 42.8 °F 67% 29.20 in 10.0 mi SE 17.3 mph 31.1 mph N/A   Clear
9:56 PM 51.8 °F - 42.8 °F 71% 29.17 in 10.0 mi SE 20.7 mph - N/A   Clear
10:16 PM 51.8 °F - 42.8 °F 71% 29.14 in 10.0 mi ESE 18.4 mph 25.3 mph N/A   Clear
10:36 PM 51.8 °F - 42.8 °F 71% 29.15 in 10.0 mi SSE 15.0 mph - N/A   Clear
10:56 PM 55.4 °F - 44.6 °F 67% 29.13 in 10.0 mi SSE 23.0 mph 34.5 mph N/A   Partly Cloudy
11:16 PM 55.4 °F - 44.6 °F 67% 29.12 in 10.0 mi SSE 34.5 mph 43.7 mph N/A   Scattered Clouds
11:36 PM 55.4 °F - 44.6 °F 67% 29.14 in 10.0 mi South 28.8 mph 40.3 mph N/A   Mostly Cloudy
11:56 PM 55.4 °F - 44.6 °F 67% 29.14 in 10.0 mi SSE 26.5 mph 34.5 mph N/A   Partly Cloudy